Location: Unspecified
(42.7600°N, 0.0000°E)
Time: 06:22:56
(UTC+00:00)

Cosmos 1168 Rocket - Visible Passes

Search period start: 04 April 2026 00:00
Search period end: 14 April 2026 00:00
Orbit: 950 x 1000 km, 82.9° (Epoch: 29 March)

Date Brightness Start Highest point End Pass type
(mag) Time Alt. Az. Time Alt. Az. Time Alt. Az.
5 Apr 7.5 19:06:56 10° NNW 19:11:47 25° W 19:16:37 10° SW visible
6 Apr 8.1 19:33:50 10° NW 19:36:36 13° W 19:39:23 10° WSW visible
9 Apr 8.3 04:40:52 10° ESE 04:43:22 13° ENE 04:45:50 10° NE visible
9 Apr 8.1 19:03:44 10° NW 19:07:18 16° W 19:10:52 10° WSW visible
12 Apr 8.4 04:13:18 10° E 04:14:04 10° ENE 04:14:50 10° ENE visible
13 Apr 7.8 04:34:33 10° SE 04:38:50 20° E 04:43:07 10° NE visible
